Sant Sadurní d´Osormort





Hora UTC 23:20
Temperatura 3.1 ºC
Humitat 92.0 %
Pressió 1028.0 hPa
Pluja 0.0 mm
Velocitat vent 0.0 km/h
Direcció vent WNW

Dades diàries 2020-10-29



Hora UTC (hivern +1h; estiu +2h)
Temperatura (ºC) Humitat (%) Pressió (hPa) Velocitat vent (km/h) Precipitació (mm)
Hora UTC Aire Humitat Pressió Vel. Dir. Vel. Max Dir. Intent. màx 5 min.
00:00 2.3 92.0 1025.8 0.0 S 0.0 0.0
00:05 2.3 92.0 1025.9 0.0 S 0.0 0.0
00:10 2.3 92.0 1025.9 0.0 S 0.0 0.0
00:15 2.2 92.0 1025.9 0.0 S 0.0 0.0
00:20 2.2 92.0 1025.8 0.0 S 0.0 0.0
00:25 2.2 92.0 1025.8 0.0 S 0.0 0.0
00:30 2.2 92.0 1025.7 0.0 S 0.0 0.0
00:35 2.1 92.0 1025.7 0.0 S 0.0 0.0
00:40 1.9 92.0 1025.8 0.0 S 0.0 0.0
00:45 1.9 92.0 1025.9 0.0 S 0.0 0.0
00:50 1.8 92.0 1026.1 0.0 S 0.0 0.0
00:55 1.8 92.0 1026.2 0.0 S 0.0 0.0
01:00 1.8 92.0 1026.1 0.0 S 0.0 0.0
01:05 1.7 92.0 1026.1 0.0 S 0.0 0.0
01:10 1.7 92.0 1026.1 0.0 S 0.0 0.0
01:15 1.9 93.0 1026.1 0.0 N 0.0 0.0
01:20 1.9 93.0 1026.1 0.0 S 0.0 0.0
01:25 1.8 93.0 1026.2 0.0 S 0.0 0.0
01:30 1.7 92.0 1026.2 0.0 S 0.0 0.0
01:35 1.8 93.0 1026.3 0.0 S 0.0 0.0
01:40 1.8 93.0 1026.2 0.0 S 0.0 0.0
01:45 1.8 93.0 1026.1 0.0 S 0.0 0.0
01:50 1.7 93.0 1026.1 0.0 S 0.0 0.0
01:55 1.6 93.0 1025.9 0.0 S 0.0 0.0
02:00 1.6 93.0 1025.9 0.0 S 0.0 0.0
02:05 1.7 93.0 1025.8 0.0 S 0.0 0.0
02:10 1.8 93.0 1026.0 0.0 S 0.0 0.0
02:15 1.7 93.0 1025.9 0.0 S 0.0 0.0
02:20 1.5 93.0 1025.7 0.0 S 0.0 0.0
02:25 1.4 93.0 1025.6 0.0 S 0.0 0.0
02:30 1.4 93.0 1025.6 0.0 S 0.0 0.0
02:35 1.4 93.0 1025.6 0.0 S 0.0 0.0
02:40 1.5 93.0 1025.8 0.0 S 0.0 0.0
02:45 1.5 93.0 1026.0 0.0 S 0.0 0.0
02:50 1.4 93.0 1026.0 0.0 S 0.0 0.0
02:55 1.4 93.0 1026.1 0.0 S 0.0 0.2
03:00 1.4 93.0 1026.1 0.0 S 0.0 0.0
03:05 1.4 93.0 1026.1 0.0 S 0.0 0.0
03:10 1.4 93.0 1025.9 0.0 S 0.0 0.0
03:15 1.3 93.0 1025.8 0.0 S 0.0 0.0
03:20 1.4 93.0 1025.9 0.0 S 0.0 0.0
03:25 1.6 93.0 1026.0 0.0 S 0.0 0.0
03:30 1.5 93.0 1026.0 0.0 S 0.0 0.0
03:35 1.2 93.0 1026.0 0.0 S 0.0 0.0
03:40 1.2 93.0 1025.9 0.0 S 0.0 0.0
03:45 1.2 93.0 1026.0 0.0 S 0.0 0.0
03:50 1.3 93.0 1026.2 0.0 S 0.0 0.0
03:55 1.4 93.0 1026.4 0.0 S 0.0 0.0
04:00 1.5 93.0 1026.6 0.0 S 0.0 0.0
04:05 1.4 93.0 1026.6 0.0 N 0.0 0.0
04:10 1.4 93.0 1026.6 0.0 N 0.0 0.0
04:15 1.5 94.0 1026.6 0.0 S 0.0 0.0
04:20 1.6 94.0 1026.6 0.0 S 0.0 0.0
04:25 1.7 94.0 1026.6 0.0 N 0.0 0.0
04:30 1.8 94.0 1026.6 0.0 S 1.6 0.0
04:35 1.9 94.0 1026.7 0.0 S 1.6 0.0
04:40 2.1 94.0 1026.8 0.0 S 1.6 0.0
04:45 2.2 94.0 1026.8 0.0 S 1.6 0.0
04:50 2.3 94.0 1026.8 0.0 S 0.0 0.0
04:55 2.4 94.0 1026.8 0.0 S 0.0 0.0
05:00 2.6 94.0 1026.9 0.0 S 0.0 0.0
05:05 2.9 94.0 1027.0 0.0 S 0.0 0.0
05:10 3.1 94.0 1027.0 0.0 S 0.0 0.0
05:15 3.3 94.0 1026.8 0.0 S 0.0 0.0
05:20 3.3 94.0 1026.7 0.0 S 0.0 0.0
05:25 3.4 94.0 1026.8 0.0 S 0.0 0.0
05:30 3.6 94.0 1026.9 0.0 S 0.0 0.0
05:35 3.8 94.0 1026.9 0.0 S 0.0 0.0
05:40 3.9 94.0 1026.9 0.0 S 0.0 0.0
05:45 3.9 94.0 1026.8 0.0 S 0.0 0.0
05:50 4.0 94.0 1026.7 0.0 S 0.0 0.0
05:55 4.1 94.0 1026.7 0.0 S 0.0 0.0
06:00 4.2 94.0 1026.6 0.0 S 0.0 0.0
06:05 4.3 94.0 1026.6 0.0 S 0.0 0.0
06:10 4.3 94.0 1026.7 0.0 N 0.0 0.0
06:15 4.4 94.0 1026.7 0.0 N 0.0 0.0
06:25 4.5 94.0 1026.6 0.0 S 0.0 0.0
06:25 4.6 94.0 1026.7 0.0 S 0.0 0.0
06:35 4.6 94.0 1026.8 0.0 S 0.0 0.0
06:35 4.6 94.0 1026.7 0.0 S 0.0 0.0
06:45 4.7 94.0 1026.9 0.0 S 0.0 0.0
06:50 4.8 94.0 1026.9 0.0 N 0.0 0.0
06:55 4.8 94.0 1027.0 0.0 N 0.0 0.0
07:00 4.9 94.0 1027.1 0.0 S 0.0 0.0
07:05 5.1 94.0 1027.2 0.0 N 0.0 0.0
07:10 5.2 95.0 1027.4 0.0 N 0.0 0.0
07:15 5.3 94.0 1027.4 0.0 N 0.0 0.0
07:20 5.4 94.0 1027.4 0.0 S 0.0 0.0
07:25 5.6 95.0 1027.5 0.0 N 0.0 0.0
07:30 5.8 95.0 1027.5 0.0 S 0.0 0.0
07:35 5.9 95.0 1027.6 0.0 N 0.0 0.0
07:40 6.1 95.0 1027.4 0.0 N 0.0 0.0
07:45 6.2 95.0 1027.4 0.0 N 0.0 0.0
07:50 6.3 95.0 1027.5 0.0 S 0.0 0.0
07:55 6.4 95.0 1027.4 0.0 N 0.0 0.0
08:00 6.6 95.0 1027.4 0.0 S 0.0 0.0
08:05 6.8 95.0 1027.4 0.0 N 0.0 0.0
08:05 6.9 95.0 1027.3 0.0 N 0.0 0.0
08:10 7.2 95.0 1027.3 0.0 N 0.0 0.0
08:15 7.6 95.0 1027.2 0.0 N 0.0 0.0
08:20 7.8 95.0 1027.2 0.0 N 0.0 0.0
08:25 8.1 95.0 1027.2 0.0 N 0.0 0.0
08:30 8.3 95.0 1027.2 0.0 N 0.0 0.0
08:35 8.6 95.0 1027.3 0.0 N 0.0 0.0
08:40 8.8 95.0 1027.3 0.0 N 1.6 0.0
08:45 9.1 95.0 1027.3 0.0 N 1.6 0.0
08:50 9.4 95.0 1027.4 0.0 N 1.6 0.0
08:55 9.7 95.0 1027.5 0.0 N 0.0 0.0
09:00 9.9 95.0 1027.7 0.0 N 3.2 0.0
09:05 10.3 95.0 1027.7 1.6 N 3.2 0.0
09:10 10.5 95.0 1027.8 0.0 N 3.2 0.0
09:15 10.7 95.0 1027.9 0.0 N 1.6 0.0
09:20 10.8 95.0 1028.0 1.6 WNW 1.6 0.0
09:25 11.0 94.0 1027.9 1.6 WNW 3.2 0.0
09:30 11.1 94.0 1027.9 0.0 NW 4.8 0.0
09:35 11.2 94.0 1027.8 3.2 NW 4.8 0.0
09:40 11.3 93.0 1027.7 3.2 NW 6.4 0.0
09:45 11.7 93.0 1027.7 0.0 N 6.4 0.0
09:50 12.0 92.0 1027.7 0.0 N 3.2 0.0
09:55 12.3 92.0 1027.5 0.0 N 3.2 0.0
10:00 12.7 92.0 1027.5 0.0 N 1.6 0.0
10:05 13.1 91.0 1027.5 1.6 N 4.8 0.0
10:10 13.5 90.0 1027.4 0.0 WSW 4.8 0.0
10:15 13.8 89.0 1027.4 3.2 N 4.8 0.0
10:25 13.9 88.0 1027.3 1.6 SE 4.8 0.0
10:30 14.4 88.0 1027.3 3.2 SSW 4.8 0.0
10:35 14.7 85.0 1027.3 1.6 WNW 6.4 0.0
10:40 14.7 83.0 1027.2 1.6 WNW 6.4 0.0
10:45 14.8 82.0 1027.2 0.0 WNW 4.8 0.0
10:45 14.8 82.0 1027.2 1.6 NW 4.8 0.0
10:55 15.0 81.0 1027.1 1.6 ESE 9.7 0.0
11:00 15.1 81.0 1027.2 1.6 NE 8.0 0.0
11:05 15.3 81.0 1027.0 3.2 WSW 6.4 0.0
11:10 15.7 80.0 1026.9 1.6 WNW 8.0 0.0
11:15 16.1 78.0 1026.9 12.9 NW 12.9 0.0
11:20 16.2 76.0 1026.9 3.2 NW 12.9 0.0
11:25 16.3 75.0 1026.8 4.8 SSW 12.9 0.0
11:30 16.6 75.0 1026.7 3.2 SSW 8.0 0.0
11:35 16.8 74.0 1026.6 3.2 WSW 6.4 0.0
11:40 17.1 74.0 1026.5 4.8 WSW 11.3 0.0
11:45 17.2 73.0 1026.4 1.6 W 12.9 0.0
11:50 17.3 72.0 1026.4 3.2 NNW 11.3 0.0
11:55 17.3 72.0 1026.3 3.2 SW 8.0 0.0
12:00 17.6 72.0 1026.2 4.8 WNW 6.4 0.0
12:00 17.7 71.0 1026.2 1.6 W 8.0 0.0
12:10 17.9 70.0 1026.2 3.2 NW 11.3 0.0
12:15 17.9 70.0 1026.1 4.8 SW 9.7 0.0
12:20 17.8 70.0 1026.1 4.8 NW 14.5 0.0
12:25 17.8 70.0 1026.2 11.3 W 14.5 0.0
12:30 17.7 71.0 1026.0 3.2 SW 14.5 0.0
12:35 17.9 70.0 1026.0 3.2 W 14.5 0.0
12:40 18.1 68.0 1026.0 4.8 W 14.5 0.0
12:45 18.1 68.0 1025.9 3.2 WSW 9.7 0.0
12:50 18.1 68.0 1026.0 6.4 WNW 8.0 0.0
12:50 17.9 68.0 1026.0 4.8 W 14.5 0.0
13:00 17.6 69.0 1026.0 4.8 W 14.5 0.0
13:05 17.4 68.0 1025.8 1.6 WNW 14.5 0.0
13:10 17.7 67.0 1025.9 6.4 NW 14.5 0.0
13:15 17.7 68.0 1025.9 3.2 WSW 14.5 0.0
13:20 17.8 68.0 1025.8 4.8 NW 12.9 0.0
13:25 17.9 68.0 1025.7 3.2 SW 11.3 0.0
13:25 18.1 68.0 1025.8 3.2 WSW 11.3 0.0
13:30 18.1 66.0 1025.7 3.2 SSW 6.4 0.0
13:35 18.1 66.0 1025.7 1.6 SSE 6.4 0.0
13:45 18.0 66.0 1025.6 4.8 WNW 8.0 0.0
13:45 17.9 67.0 1025.6 4.8 W 11.3 0.0
13:50 17.9 66.0 1025.5 3.2 NW 6.4 0.0
13:55 17.9 66.0 1025.5 1.6 S 6.4 0.0
14:00 17.9 68.0 1025.6 6.4 NNW 8.0 0.0
14:05 18.0 67.0 1025.6 1.6 WNW 11.3 0.0
14:10 17.9 65.0 1025.7 3.2 W 6.4 0.0
14:15 17.8 66.0 1025.8 6.4 SSE 14.5 0.0
14:20 17.8 67.0 1025.7 4.8 W 14.5 0.0
14:25 17.8 68.0 1025.7 0.0 SW 8.0 0.0
14:30 17.9 66.0 1025.7 3.2 W 4.8 0.0
14:35 17.9 66.0 1025.8 1.6 W 4.8 0.0
14:40 17.8 66.0 1025.8 0.0 WNW 11.3 0.0
14:45 17.8 67.0 1025.7 3.2 WNW 9.7 0.0
14:50 17.9 66.0 1025.7 3.2 WNW 6.4 0.0
14:55 17.9 66.0 1025.7 1.6 S 4.8 0.0
15:00 18.1 66.0 1025.7 3.2 W 4.8 0.0
15:05 18.2 66.0 1025.8 1.6 WNW 4.8 0.0
15:10 18.2 64.0 1025.9 1.6 SW 4.8 0.0
15:15 18.2 65.0 1025.8 3.2 WNW 4.8 0.0
15:20 18.1 65.0 1025.9 1.6 NNW 6.4 0.0
15:25 18.0 66.0 1025.9 3.2 WNW 6.4 0.0
15:30 17.8 66.0 1025.8 1.6 NNE 6.4 0.0
15:35 17.8 66.0 1025.9 1.6 WNW 6.4 0.0
15:40 17.7 66.0 1025.9 1.6 WNW 6.4 0.0
15:45 17.4 67.0 1025.9 1.6 WNW 6.4 0.0
15:50 17.1 69.0 1025.9 3.2 WNW 6.4 0.0
15:55 16.7 70.0 1026.0 1.6 N 6.4 0.0
16:00 16.3 73.0 1026.0 1.6 N 6.4 0.0
16:05 15.8 75.0 1026.0 1.6 N 3.2 0.0
16:10 15.4 76.0 1025.9 0.0 N 1.6 0.0
16:15 15.1 77.0 1026.0 1.6 N 1.6 0.0
16:20 14.6 78.0 1026.0 0.0 N 3.2 0.0
16:25 14.3 79.0 1026.0 1.6 N 3.2 0.0
16:30 13.8 80.0 1026.1 1.6 N 3.2 0.0
16:35 13.5 82.0 1026.1 0.0 WNW 3.2 0.0
16:40 13.2 82.0 1026.1 0.0 W 3.2 0.0
16:45 12.9 82.0 1026.1 0.0 W 0.0 0.0
16:50 12.7 83.0 1026.2 0.0 W 0.0 0.0
16:55 12.3 83.0 1026.3 0.0 W 0.0 0.0
17:00 12.2 84.0 1026.4 0.0 W 0.0 0.0
17:05 11.7 84.0 1026.5 0.0 W 0.0 0.0
17:10 11.4 85.0 1026.5 0.0 W 0.0 0.0
17:15 11.2 85.0 1026.5 0.0 W 0.0 0.0
17:20 10.9 86.0 1026.6 0.0 W 0.0 0.0
17:25 10.7 86.0 1026.6 0.0 W 0.0 0.0
17:30 10.5 86.0 1026.7 0.0 W 0.0 0.0
17:35 10.1 86.0 1026.8 0.0 W 0.0 0.0
17:40 9.8 87.0 1026.8 0.0 W 0.0 0.0
17:45 9.7 87.0 1026.9 0.0 W 0.0 0.0
17:50 9.4 87.0 1027.0 0.0 W 0.0 0.0
17:55 9.3 88.0 1026.9 0.0 W 0.0 0.0
18:00 9.1 88.0 1027.0 0.0 W 0.0 0.0
18:05 8.9 88.0 1027.1 0.0 W 0.0 0.0
18:10 8.7 88.0 1027.1 0.0 N 0.0 0.0
18:15 8.5 88.0 1027.0 0.0 W 0.0 0.0
18:20 8.3 89.0 1027.1 0.0 W 0.0 0.0
18:25 8.2 89.0 1027.1 0.0 W 0.0 0.0
18:30 8.0 89.0 1027.1 0.0 W 0.0 0.0
18:35 7.8 89.0 1027.1 0.0 W 0.0 0.0
18:40 7.8 89.0 1027.2 0.0 W 0.0 0.0
18:45 7.6 89.0 1027.2 0.0 W 0.0 0.0
18:50 7.4 89.0 1027.1 0.0 W 0.0 0.0
18:55 7.2 89.0 1027.1 0.0 W 0.0 0.0
19:00 7.1 90.0 1027.1 0.0 W 0.0 0.0
19:05 7.1 90.0 1027.1 0.0 W 0.0 0.0
19:10 6.9 90.0 1027.1 0.0 W 0.0 0.0
19:15 6.8 90.0 1027.1 0.0 W 0.0 0.0
19:20 6.7 90.0 1027.2 0.0 W 0.0 0.0
19:25 6.6 90.0 1027.3 0.0 W 0.0 0.0
19:30 6.4 90.0 1027.2 0.0 W 0.0 0.0
19:35 6.4 90.0 1027.1 0.0 W 0.0 0.0
19:40 6.3 90.0 1027.2 0.0 W 0.0 0.0
19:45 6.2 90.0 1027.1 0.0 W 0.0 0.0
19:50 6.0 90.0 1027.2 0.0 W 0.0 0.0
19:55 5.9 91.0 1027.2 0.0 W 0.0 0.0
20:00 5.8 90.0 1027.3 0.0 W 0.0 0.0
20:05 5.7 91.0 1027.2 0.0 W 0.0 0.0
20:10 5.6 91.0 1027.2 0.0 W 0.0 0.0
20:15 5.5 91.0 1027.2 0.0 W 0.0 0.0
20:20 5.4 91.0 1027.3 0.0 W 0.0 0.0
20:25 5.3 91.0 1027.3 0.0 W 0.0 0.0
20:30 5.3 91.0 1027.4 0.0 W 0.0 0.0
20:35 5.2 91.0 1027.5 0.0 W 0.0 0.0
20:40 5.1 91.0 1027.5 0.0 W 0.0 0.0
20:45 5.1 91.0 1027.5 0.0 W 0.0 0.0
20:50 5.0 91.0 1027.6 0.0 W 0.0 0.0
20:55 4.9 91.0 1027.6 0.0 W 0.0 0.0
21:00 4.8 91.0 1027.6 0.0 W 0.0 0.0
21:05 4.7 91.0 1027.6 0.0 W 0.0 0.0
21:10 4.6 91.0 1027.6 0.0 W 0.0 0.0
21:15 4.5 91.0 1027.7 0.0 W 0.0 0.0
21:20 4.5 92.0 1027.7 0.0 W 0.0 0.0
21:25 4.5 92.0 1027.7 0.0 W 0.0 0.0
21:30 4.4 91.0 1027.7 0.0 W 0.0 0.0
21:40 4.3 91.0 1027.8 0.0 W 0.0 0.0
21:45 4.3 91.0 1027.8 0.0 W 0.0 0.0
21:50 4.2 91.0 1027.8 0.0 WNW 0.0 0.0
21:55 4.1 91.0 1027.7 0.0 WNW 0.0 0.0
22:00 3.9 91.0 1027.8 0.0 WNW 0.0 0.0
22:05 3.9 92.0 1027.8 0.0 WNW 0.0 0.0
22:10 4.0 92.0 1027.8 0.0 WNW 0.0 0.0
22:10 3.9 92.0 1027.8 0.0 WNW 0.0 0.0
22:20 3.9 92.0 1027.8 0.0 WNW 0.0 0.0
22:25 3.8 92.0 1027.8 0.0 WNW 0.0 0.0
22:30 3.7 92.0 1027.8 0.0 WNW 0.0 0.0
22:35 3.7 92.0 1027.8 0.0 WNW 0.0 0.0
22:40 3.7 92.0 1027.8 0.0 WNW 0.0 0.0
22:45 3.6 92.0 1027.8 0.0 WNW 0.0 0.0
22:50 3.5 92.0 1027.8 0.0 WNW 0.0 0.0
22:55 3.4 92.0 1027.8 0.0 WNW 0.0 0.0
23:00 3.3 92.0 1027.8 0.0 WNW 0.0 0.0
23:05 3.3 92.0 1027.8 0.0 WNW 0.0 0.0
23:10 3.3 92.0 1027.8 0.0 WNW 0.0 0.0
23:15 3.2 92.0 1027.9 0.0 WNW 0.0 0.0
23:20 3.1 92.0 1028.0 0.0 WNW 0.0 0.0
Màxima 18.2 95.0 1028.0 12.9 NW 14.5 0.2
Mínima 1.2 64.0 1025.5
Total 0.2